Regional Weather Roundup
Issued by NWS

Home | Current Version | Previous Version | Text Only | Print | Product List | Glossary Off
Versions: 1 2 3 4 5 6 7 8 9 10 11 12 13 14 15 16 17 18 19 20 21 22 23 24 25 26 27

000
ASUS45 KBOU 240107
RWRCO

WEATHER ROUNDUP FOR COLORADO
NATIONAL WEATHER SERVICE DENVER/BOULDER CO
700 PM MDT SUN JUL 23 2017

NOTE: "FAIR" INDICATES FEW OR NO CLOUDS BELOW 12000 FEET WITH NO
SIGNIFICANT WEATHER AND/OR OBSTRUCTIONS TO VISIBILITY.

COZ001>005-013-030-031-240200-
...NORTHWEST COLORADO...

CITY           SKY/WX    TMP DP  RH WIND       PRES   REMARKS
CRAIG          FAIR      88  31  13 CALM      30.10F
HAYDEN         FAIR     N/A N/A N/A NE3       30.14S
MEEKER         FAIR      89  29  11 N8        30.12F
RABBIT EARS PA FAIR      68  32  26 NW8       30.51S
STEAMBOAT SPGS FAIR      85  26  11 W6        30.16F
WALDEN         FAIR      77  34  20 E5        30.29F
$$

COZ006>008-011-240200-
...WEST CENTRAL VALLEYS...

CITY           SKY/WX    TMP DP  RH WIND       PRES   REMARKS
GRAND JUNCTION FAIR      95  29   9 S5        29.97F
MONTROSE       FAIR      76  48  37 SE25G31   30.13F
EAGLE          FAIR      88  35  15 CALM      30.14F
RIFLE          FAIR      94  28   9 W7        30.02F
DELTA          FAIR      83  48  29 E7G24     30.10R
NUCLA          FAIR      81  45  28 E13       30.18F
$$

COZ017>023-064>068-240200-
...SOUTHWEST COLORADO...

CITY           SKY/WX    TMP DP  RH WIND       PRES   REMARKS
DURANGO        FAIR      76  47  35 N13       30.20S
CORTEZ         FAIR      81  51  35 NE15      30.14S
PAGOSA SPRINGS FAIR      76  42  29 NW5       30.28S
TELLURIDE      FAIR      61  47  60 SE7       30.44F
WOLF CREEK PAS FAIR      55  36  47 SE5       30.68S
$$

COZ009-010-012-014-032>034-037-058>063-240200-
...CENTRAL COLORADO...

CITY           SKY/WX    TMP DP  RH WIND       PRES   REMARKS
ASPEN          PTSUNNY   74  43  32 SE18      30.28R
BUENA VISTA    CLOUDY    71  42  35 E13       30.35R
COPPER MTN     CLOUDY    55  41  58 S12       30.65F
BERTHOUD PASS  PTSUNNY   48  34  57 SE21G26   30.69S THUNDER
COTTONWOOD PAS PTSUNNY   66  41  39 CALM      30.51R
GUNNISON       FAIR      71  47  42 N13G22    30.30R
KREMMLING      FAIR      82  34  17 S7        30.22S
LEADVILLE      PTSUNNY   62  39  42 SE8       30.48S
MONARCH PASS   PTSUNNY   55  39  54 SE10      30.75R
SALIDA         PTSUNNY   77  41  27 S7G17     30.36R
SUNLIGHT       PTSUNNY   64  34  32 SW3       30.55S
WILKERSON PASS CLOUDY    54  37  54 S8        30.64F
$$

COZ069>075-240200-
...SAN LUIS VALLEY/SANGRE DE CRISTO MOUNTAINS...

CITY           SKY/WX    TMP DP  RH WIND       PRES   REMARKS
ALAMOSA        CLOUDY    76  43  30 CALM      30.27F
DEL NORTE      FAIR      69  46  42 E13       30.33R
LA VETA PASS   NOT AVBL
SAGUACHE         N/A    N/A N/A N/A MISG        N/A
$$

COZ035-036-038>040-240200-
...NORTHERN COLORADO FRONT RANGE...

CITY           SKY/WX    TMP DP  RH WIND       PRES   REMARKS
DENVER INTL AP FAIR      88  45  22 SW14      30.11S
DMNS CITY PARK   N/A     84  42  22 S6G16     30.11S
AURORA         MOSUNNY   83  49  30 S10       30.14F
FRONT RANGE AP FAIR      88  43  20 S12       30.13F
ERIE MUNI ARPT FAIR      88  40  18 S14G20    30.08S
BOULDER MUN AP FAIR      86  45  23 SE8       30.08S
CENTENNIAL     FAIR      84  45  25 S13       30.15F
BROOMFIELD     FAIR      86  41  20 S10       30.13S
FORT COLLINS   FAIR      90  51  26 E9        30.07F
LONGMONT       FAIR      87  47  24 S6        30.08F
$$

COZ041-046-047-076>085-087-088-240200-
...PIKES PEAK/PALMER DIVIDE AND SOUTHERN FOOTHILLS...

CITY           SKY/WX    TMP DP  RH WIND       PRES   REMARKS
COLO. SPRINGS  PTSUNNY   80  50  34 SE8       30.21F
A. F. ACADEMY  FAIR      76  50  39 S7        30.22F
SCHRIEVER AFB  FAIR      76  46  34 SE8       30.22F
CHEYENNE MTN   PTSUNNY   75  43  31 S7        30.22F
ELLICOTT       FAIR     N/A N/A N/A SE14      30.20F
FALCON           N/A     76  47  35 S7        30.28S
FORT CARSON    FAIR      80  51  36 E3        30.17F
LIMON          FAIR      80  49  33 SE17      30.16S
MONUMENT HILL  FAIR      73  48  40 S13       30.28F
CANON CITY     MOSUNNY   88  54  31 MISG      30.12S
WALSENBURG     FAIR      86  43  22 E10G16    30.18S
TRINIDAD       PTSUNNY   83  45  26 SE9       30.16S
$$

COZ042>045-048>051-090-091-240200-
...NORTHEAST COLORADO...

CITY           SKY/WX    TMP DP  RH WIND       PRES   REMARKS
GREELEY ARPT   FAIR      87  52  29 E8        30.05F
AKRON          FAIR      84  47  27 S14       30.09F
BURLINGTON     FAIR      86  56  35 S9        30.09S
WRAY           NOT AVBL
YUMA           FAIR      81  41  24 S7        30.06F
STERLING       NOT AVBL
HOLYOKE        FAIR      88  52  29 S8        30.03F
FORT MORGAN    FAIR      88  44  21 SE14      30.06F
$$

COZ086-089-092>099-240200-
...SOUTHEAST COLORADO...

CITY           SKY/WX    TMP DP  RH WIND       PRES   REMARKS
PUEBLO         FAIR      87  51  28 SE14      30.08S
LA JUNTA       FAIR      88  56  33 E12       30.06F
LAMAR          FAIR      87  59  38 SE15G21   30.03S
SPRINGFIELD      N/A     82  58  43 E12       30.08S
$$




USA.gov is the U.S. government's official web portal to all federal, state and local government web resources and services.